Theta_e
282 278 274 276 278 279 277 275 274 279 283 283 283 284 285 288 289 290 291 293 294 298 306 316 325 327 328 327 320 325 326 325 327 326 325 325 325 328 329 328 325 325 324 323
277 274 280 283 282 279 278 275 274 279 283 282 281 280 284 286 288 290 292 293 295 297 299 305 319 325 326 326 324 324 325 325 326 328 328 327 327 327 327 325 326 325 325 324
274 278 283 281 279 277 277 276 276 277 280 281 279 278 280 286 289 292 294 294 296 297 298 299 304 321 325 326 325 322 325 325 326 326 327 325 327 326 325 324 324 325 325 325
276 281 280 279 278 279 275 280 280 278 276 270 278 268 278 283 285 288 290 292 293 296 299 303 305 306 322 325 327 323 324 325 326 326 324 324 322 321 323 324 325 324 325 325
276 278 278 278 279 281 277 281 279 279 276 273 272 270 273 280 281 285 287 290 294 298 299 299 305 308 311 324 325 324 323 324 325 325 325 323 322 322 323 325 324 324 324 325
278 282 280 279 282 282 283 280 278 276 274 262 271 271 271 276 281 284 287 291 294 295 296 298 304 309 311 316 322 323 322 323 325 324 324 323 322 322 322 322 323 323 324 325
275 277 280 283 278 279 279 273 264 261 260 263 273 272 273 280 283 284 289 291 292 293 294 296 298 301 305 308 311 321 323 322 324 324 324 323 323 322 322 323 323 323 323 321
265 265 276 278 276 274 275 273 265 259 263 267 275 270 274 282 283 286 290 290 290 290 293 294 296 298 299 302 304 308 315 323 323 323 323 323 324 323 323 324 325 322 322 320
263 268 278 279 278 279 276 266 276 269 272 266 271 273 278 282 282 282 284 286 286 287 289 293 295 296 296 298 300 302 306 311 323 323 323 323 323 322 323 324 325 324 317 314
271 265 276 278 279 279 277 279 269 269 259 263 269 271 271 276 278 281 282 282 284 287 287 292 294 295 295 296 297 299 303 306 309 322 323 323 323 323 322 318 314 312 310 308
268 270 271 274 269 273 273 271 269 268 269 264 264 268 276 277 279 279 281 282 283 284 285 289 292 294 294 295 295 295 298 301 304 308 318 318 315 312 312 310 309 308 306 306
276 268 268 269 276 277 276 274 273 267 265 269 268 267 280 280 280 279 280 282 283 284 285 286 289 291 293 293 293 293 294 296 300 303 308 310 310 308 307 306 305 305 304 303
273 266 260 266 269 273 268 276 276 274 272 266 264 267 278 278 279 280 280 281 283 284 284 285 286 287 290 292 292 291 291 293 296 299 303 305 306 306 305 302 300 300 300 300
282 271 266 263 266 264 266 270 274 271 268 268 269 270 274 276 277 279 280 280 281 282 283 284 284 285 289 291 290 290 290 291 293 296 298 300 301 302 302 301 302 303 302 298
275 265 269 273 274 274 272 271 272 271 272 268 270 271 274 277 278 280 281 281 281 282 282 283 284 285 287 289 288 288 289 290 291 292 291 290 292 295 297 296 295 294 293 291
276 267 267 269 273 273 271 273 272 273 273 273 273 272 279 280 281 279 280 280 280 281 283 284 284 284 288 288 287 287 286 288 289 288 288 288 288 288 289 290 290 289 289 288
272 265 263 263 270 269 262 268 268 271 274 274 270 276 280 278 279 280 280 280 281 283 283 285 286 287 287 286 286 285 285 286 286 285 286 285 285 285 285 286 287 286 285 285
273 268 268 263 262 258 272 274 270 272 275 276 276 278 279 280 281 282 283 282 282 283 284 285 285 286 285 283 282 283 285 285 284 284 284 285 285 283 283 284 283 283 283 283
277 274 262 258 253 266 271 275 271 267 272 277 277 279 280 281 280 281 284 285 285 285 285 285 286 284 281 281 281 282 283 283 284 283 283 284 284 284 283 281 281 281 282 282
277 277 268 255 257 255 270 274 277 274 267 276 279 279 279 279 274 278 284 285 287 287 284 283 281 280 280 280 282 283 283 283 282 282 283 284 284 283 281 281 281 281 281 281
262 269 268 264 263 266 274 276 277 264 272 279 280 280 278 276 279 282 284 286 286 282 280 280 280 280 280 282 284 283 283 281 282 283 282 282 282 282 281 280 280 280 280 280
265 262 262 260 259 262 276 275 272 277 278 278 278 279 278 279 280 282 285 285 283 280 278 279 280 281 283 285 285 283 280 280 281 281 280 279 280 281 280 279 279 279 279 278
267 272 268 268 269 277 277 278 279 278 278 279 278 279 279 278 279 281 285 284 283 281 282 281 281 283 284 284 284 281 280 280 279 279 278 278 279 280 280 280 278 278 278 278
274 276 271 272 277 278 280 281 281 281 280 280 279 279 278 278 279 280 285 284 281 281 280 282 282 282 281 282 281 281 280 279 280 279 278 278 278 277 278 279 279 278 278 277
276 274 271 272 277 279 280 281 280 280 279 279 279 279 279 279 280 282 283 283 282 282 282 281 281 282 281 281 279 278 278 278 277 276 275 275 275 276 275 275 276 277 276 278
277 276 274 274 280 280 281 281 280 279 279 279 279 279 280 280 281 282 282 281 280 280 280 281 280 280 280 278 277 276 277 277 275 273 273 273 273 273 273 274 271 281 281 282
Wind_Speed
6 10 8 6 4 6 6 7 9 11 14 20 15 14 11 10 13 7 8 9 7 7 7 8 14 15 15 13 12 18 17 15 12 9 9 8 9 8 7 6 9 12 10 10
8 6 6 6 7 7 8 7 8 10 19 17 16 22 14 15 12 11 10 9 10 6 6 6 5 12 15 19 19 17 20 18 15 12 10 8 9 7 7 5 7 9 12 11
4 3 6 7 9 9 9 6 8 12 18 12 13 10 7 9 10 8 8 9 9 11 11 8 8 10 14 17 19 19 21 20 18 17 10 6 7 8 8 5 5 9 12 13
1 3 5 9 5 3 10 5 12 17 13 6 8 9 14 20 14 7 8 8 10 10 11 11 9 7 12 15 14 16 17 19 20 18 15 18 13 12 12 11 7 6 11 11
6 5 10 6 4 3 8 8 11 18 14 6 5 5 8 9 11 12 12 15 10 15 10 13 10 11 9 12 12 10 14 14 15 17 18 14 14 11 8 10 10 8 9 12
7 4 2 4 4 4 9 6 15 4 1 3 7 2 6 6 3 13 20 11 7 11 12 11 11 10 7 5 3 6 8 12 15 15 15 18 18 15 11 10 10 9 7 9
7 5 4 1 5 6 6 6 5 8 5 6 5 8 7 18 13 14 8 10 9 7 8 10 11 11 11 13 11 5 10 12 14 16 17 17 17 17 15 13 10 11 9 4
3 11 2 2 1 5 5 4 4 6 5 13 12 8 8 10 7 4 7 6 9 13 9 7 7 7 9 7 8 10 10 11 14 15 18 15 14 10 10 11 8 6 7 6
3 8 5 4 3 1 3 2 6 5 12 6 6 8 10 17 6 4 7 9 12 13 14 9 7 5 6 9 9 8 8 9 11 18 16 16 14 12 11 8 9 7 6 6
3 8 4 5 4 4 5 3 3 3 5 7 7 12 12 10 9 7 12 10 13 12 16 11 9 6 4 6 6 6 7 6 11 12 15 14 12 12 9 7 8 8 9 10
4 4 8 5 3 3 4 4 2 3 3 5 10 11 7 12 5 10 12 8 12 14 16 12 12 9 6 5 6 6 7 8 8 11 8 10 10 10 7 7 8 10 11 13
6 4 6 10 10 7 6 4 4 3 5 4 9 23 6 19 12 9 15 20 18 16 13 11 14 14 8 7 6 6 5 7 7 7 8 5 9 11 12 12 9 3 14 11
4 3 6 11 8 6 2 4 1 3 3 13 8 18 3 10 21 22 23 22 19 16 19 19 15 12 14 6 5 6 5 5 6 6 6 4 5 9 13 15 17 11 13 10
5 5 9 10 11 3 15 14 13 7 8 13 21 35 35 29 23 22 15 17 18 20 19 19 16 13 13 6 4 4 5 5 5 4 4 2 3 3 7 10 14 18 14 12
6 6 7 17 21 20 25 27 19 18 22 15 34 20 29 28 26 22 21 17 18 20 18 16 15 12 9 7 3 2 3 4 4 3 3 4 5 6 1 10 7 9 12 11
1 6 3 17 16 17 24 24 21 22 22 21 28 34 27 28 22 18 17 13 14 15 16 13 13 10 8 5 4 1 2 3 2 3 5 5 8 8 8 4 11 12 13 14
2 2 4 9 10 13 10 11 7 5 7 7 9 19 19 18 18 15 14 13 9 10 13 15 12 7 6 5 3 2 1 1 3 4 6 7 9 10 11 6 11 12 13 14
3 5 1 7 8 5 6 4 6 12 18 15 17 21 21 19 13 10 9 14 12 15 16 16 11 6 4 3 3 4 3 3 4 5 6 8 10 13 11 13 10 12 11 12
11 5 4 2 3 13 10 1 2 4 16 10 11 15 14 8 7 20 6 6 15 13 12 13 12 6 6 6 5 5 6 4 5 6 6 8 11 13 13 12 10 10 9 9
6 9 5 2 1 8 7 2 3 3 8 5 3 9 10 8 13 15 14 15 17 13 9 10 1 3 6 6 7 8 7 6 7 7 7 8 11 15 12 11 9 7 7 10
2 2 13 6 6 13 14 12 2 6 7 3 4 15 18 13 11 18 14 17 10 4 5 2 5 5 4 4 5 7 7 7 7 7 9 8 10 12 12 10 7 6 8 11
9 9 6 2 2 14 11 2 7 6 3 4 9 10 13 17 16 14 11 9 5 4 4 4 6 5 4 3 6 8 7 6 8 9 10 8 10 5 8 11 8 8 8 9
6 10 8 14 13 5 7 7 6 4 8 13 9 13 13 16 14 10 8 5 2 2 3 4 5 6 4 5 5 8 5 7 8 8 9 6 8 5 5 9 9 6 5 6
7 6 6 2 10 21 20 16 15 18 17 13 10 10 10 11 11 7 4 4 3 2 2 3 6 5 5 7 6 7 7 5 7 8 8 5 6 5 4 4 4 6 6 6
7 8 6 13 26 20 24 14 13 12 6 6 8 8 9 7 10 6 3 3 3 3 3 3 4 5 6 6 5 5 6 6 6 6 4 4 4 3 4 4 2 4 2 4
12 11 11 17 12 11 16 6 4 6 7 7 8 10 7 5 7 4 4 0 1 4 3 4 5 5 4 4 3 3 3 5 7 6 4 4 5 3 4 5 2 5 5 8
Wind_Direction
347 51 22 330 358 294 281 296 294 306 311 320 294 276 271 279 300 297 292 296 284 273 296 243 212 220 213 193 182 191 192 186 179 181 185 193 197 194 200 193 192 194 193 193
20 47 348 341 12 352 324 303 308 303 329 324 307 286 268 268 259 255 264 271 270 260 275 291 225 211 210 202 200 191 196 189 189 191 194 199 193 207 212 192 194 196 188 193
101 274 343 16 346 350 327 296 328 316 321 301 352 294 304 256 233 245 246 240 254 251 261 251 252 210 216 221 206 196 196 193 191 191 185 192 202 210 213 202 196 199 199 196
255 303 352 334 323 11 321 337 331 318 333 295 28 291 310 307 306 273 259 247 239 244 243 232 229 231 214 218 225 216 197 191 194 186 184 192 200 205 216 217 208 196 199 202
268 306 324 324 271 339 256 312 303 295 285 333 292 267 268 306 286 290 340 338 3 360 350 290 255 235 231 220 202 201 205 195 196 192 189 188 199 208 208 210 214 198 196 200
257 277 216 235 292 275 276 327 312 327 44 26 274 316 288 276 342 329 336 347 3 2 2 11 11 347 307 6 227 207 197 202 196 194 204 195 198 201 204 210 210 204 197 200
324 296 286 10 323 313 26 27 331 343 355 234 270 316 247 285 300 334 324 352 348 355 5 12 16 5 4 1 340 279 191 197 198 194 200 205 208 198 203 199 204 202 202 178
60 334 312 55 173 269 298 155 174 272 302 292 301 257 246 245 322 300 291 304 352 352 348 359 13 360 346 353 352 2 347 221 192 204 207 207 206 209 210 200 202 201 196 180
28 271 314 313 284 354 301 2 224 258 264 274 231 274 298 274 196 279 326 356 2 352 348 337 340 353 342 338 340 346 341 334 229 200 208 202 198 198 199 198 196 192 151 147
248 299 251 290 333 277 202 299 358 337 310 291 281 281 250 287 271 336 335 1 347 347 349 331 327 326 329 317 311 329 330 323 326 231 207 195 198 203 198 162 150 147 134 128
157 148 287 16 197 239 338 318 13 120 209 269 305 272 226 254 246 313 314 328 329 325 326 312 316 303 304 299 317 326 333 339 347 334 244 190 175 155 157 143 149 148 139 133
208 189 278 251 277 256 211 264 176 143 282 295 306 271 242 258 296 344 320 315 317 319 308 298 305 305 299 302 319 323 340 335 343 331 321 256 167 153 146 135 109 127 137 127
203 275 324 336 355 356 146 193 157 315 288 255 253 266 240 317 311 296 302 301 302 305 305 299 302 299 299 282 301 322 337 333 331 335 313 305 238 174 159 144 136 139 125 135
171 201 183 224 242 192 281 258 260 236 256 284 241 273 281 280 290 294 287 287 292 292 291 289 290 284 285 274 299 335 333 334 331 349 354 352 318 262 147 154 151 152 155 142
152 243 228 248 265 271 270 277 274 249 250 247 273 267 275 284 292 292 289 284 284 284 284 283 283 281 268 275 275 341 356 333 333 34 54 55 34 36 97 122 112 109 108 108
127 268 327 288 268 265 276 271 266 259 260 249 259 273 267 274 278 283 283 277 267 274 282 288 285 278 254 245 262 10 17 351 33 76 79 66 71 56 61 53 108 103 104 103
216 138 359 270 331 309 292 249 213 243 211 208 240 255 291 295 282 291 299 284 262 269 284 292 285 282 252 228 190 167 112 30 78 85 86 91 86 82 76 39 90 100 103 103
215 131 230 279 341 334 240 295 190 249 265 251 262 271 278 280 284 270 268 276 273 292 292 277 269 244 201 150 121 118 117 112 102 100 98 106 104 92 75 84 64 79 85 104
221 182 283 253 192 291 300 328 129 140 297 235 249 269 274 283 292 290 276 275 293 288 295 284 266 201 152 151 137 127 111 114 107 104 107 107 103 100 101 87 88 97 88 86
178 201 166 60 157 249 242 294 128 111 282 268 263 278 284 304 303 302 329 331 303 275 282 290 277 91 122 134 140 136 121 126 116 98 100 95 104 101 91 96 92 82 107 111
95 201 224 223 254 274 252 258 297 71 254 258 266 306 303 294 274 295 305 311 305 297 309 62 89 104 110 119 128 118 112 106 88 90 87 81 80 97 109 103 102 108 103 96
177 162 201 140 193 273 189 351 175 225 259 264 307 298 302 288 291 296 306 294 333 339 21 55 77 91 111 131 126 98 95 87 89 90 80 80 93 101 114 108 107 113 122 106
248 197 181 193 223 254 189 233 252 275 287 292 288 296 305 293 297 304 318 324 293 47 61 83 121 124 85 83 98 117 93 100 98 102 92 85 79 82 102 119 122 108 92 110
245 177 225 91 249 253 263 261 259 262 268 274 269 287 293 290 303 305 359 357 47 52 73 101 114 102 75 67 52 97 105 105 105 108 85 77 105 105 66 79 118 128 140 147
193 152 191 256 271 279 271 260 251 267 267 249 267 263 277 290 301 306 1 22 94 93 45 76 95 97 93 92 91 113 128 134 110 104 122 111 80 87 104 80 111 124 117 174
197 214 216 248 244 240 267 244 219 238 246 237 251 288 282 272 283 298 297 110 167 142 122 92 75 82 84 98 89 94 85 110 123 117 128 143 139 138 114 115 80 109 128 187